Pula, Croatia

4:12 PM CET on February 09, 2016 (GMT +0100)
Pula

Weather History for LDPL - November, 2012

Change the Weather History Date:

Sunday, November 4, 2012

  Actual Average Record
Temperature  
Mean Temperature 57 °F -  
Max Temperature 65 °F - - ()
Min Temperature 49 °F - - ()
Degree Days  
Heating Degree Days 8    
Growing Degree Days 7 (Base 50)    
Moisture  
Dew Point 57 °F    
Average Humidity 85    
Maximum Humidity 94    
Minimum Humidity 68    
Precipitation  
Precipitation 0.31 in - - ()
Sea Level Pressure  
Sea Level Pressure 29.84 in    
Wind  
Wind Speed 4 mph ()    
Max Wind Speed 13 mph    
Max Gust Speed 24 mph    
Visibility 7.6 miles    
Events Rain    
T = Trace of Precipitation, MM = Missing Value Source: Averaged Metar Reports

Daily Weather History Graph

Daily Weather History Graph

Search for Another Location

Airport or City:

Trip Planner

Search our weather history database for the weather conditions in past years. The results will help you decide how hot, cold, wet, or windy it might be!

Date:

Astronomy

Nov. 04, 2012 Rise Set
Actual Time 6:46 AM CET 4:48 PM CET
Civil Twilight 6:16 AM CET 5:18 PM CET
Nautical Twilight 5:41 AM CET 5:53 PM CET
Astronomical Twilight 5:07 AM CET 6:27 PM CET
Moon 9:06 PM CET (11/4) 11:23 AM CET (11/4)
Length of Visible Light 11h 02m
Length of Day
10h 01m
Waning Gibbous, 74% of the Moon is Illuminated
Nov 4
Waning Gibbous
Nov 7
Last Quarter
Nov 13
New
Nov 20
First Quarter
Nov 28
Full

Hourly Weather History & Observations

Time (CET) Temp. Dew Point Humidity Pressure Visibility Wind Dir Wind Speed Gust Speed Precip Events Conditions
12:00 AM 51.8 °F 50.0 °F 94% 29.95 in 6.2 mi Calm Calm - N/A   Partly Cloudy
12:30 AM 53.6 °F 51.8 °F 94% 29.95 in 6.2 mi Variable 1.2 mph - N/A   Partly Cloudy
1:00 AM 57 °F 55 °F 89% 29.95 in 19 mi South 2.2 mph - -   Partly Cloudy
1:00 AM 57.2 °F 55.4 °F 94% 29.95 in - Variable 1.2 mph - N/A   Clear
1:30 AM 55.4 °F 51.8 °F 88% 29.95 in - Variable 1.2 mph - N/A   Clear
2:00 AM 55.4 °F 51.8 °F 88% 29.95 in - Variable 1.2 mph - N/A   Clear
2:30 AM 51.8 °F 50.0 °F 94% 29.92 in - Variable 2.3 mph - N/A   Clear
3:00 AM 57.2 °F 53.6 °F 88% 29.92 in - Variable 1.2 mph - N/A   Clear
3:30 AM 59.0 °F 55.4 °F 88% 29.92 in 6.2 mi Variable 2.3 mph - N/A   Scattered Clouds
4:00 AM 60 °F 56 °F 82% 29.91 in 19 mi South 2.2 mph - -   Overcast
4:00 AM 60.8 °F 55.4 °F 82% 29.89 in 6.2 mi Variable 2.3 mph - N/A   Scattered Clouds
4:30 AM 60.8 °F 53.6 °F 77% 29.89 in 6.2 mi Variable 2.3 mph - N/A   Mostly Cloudy
5:00 AM 60 °F 54 °F 75% 29.91 in 19 mi SSE 2.2 mph - -   Overcast
5:00 AM 60.8 °F 53.6 °F 77% 29.89 in 6.2 mi Variable 1.2 mph - N/A   Mostly Cloudy
5:30 AM 60.8 °F 53.6 °F 77% 29.89 in 6.2 mi Variable 3.5 mph - N/A   Mostly Cloudy
6:00 AM 62 °F 55 °F 72% 29.90 in 19 mi SSE 2.2 mph - -   Overcast
6:00 AM 60.8 °F 55.4 °F 82% 29.89 in 6.2 mi Variable 2.3 mph - N/A   Mostly Cloudy
6:30 AM 60.8 °F 55.4 °F 82% 29.89 in 6.2 mi Variable 2.3 mph - N/A Rain Light Rain
7:00 AM 61 °F 56 °F 77% 29.91 in 19 mi ESE 2.2 mph - - Rain Light Rain
7:00 AM 60.8 °F 55.4 °F 82% 29.89 in 6.2 mi Variable 2.3 mph - N/A   Mostly Cloudy
7:30 AM 62.6 °F 55.4 °F 77% 29.89 in 6.2 mi Variable 4.6 mph - N/A   Mostly Cloudy
8:00 AM 62.6 °F 55.4 °F 77% 29.89 in 6.2 mi Variable 3.5 mph - N/A   Partly Cloudy
8:30 AM 62.6 °F 55.4 °F 77% 29.89 in 6.2 mi Variable 3.5 mph - N/A   Scattered Clouds
9:00 AM 62.6 °F 55.4 °F 77% 29.89 in 6.2 mi Variable 4.6 mph - N/A   Scattered Clouds
9:30 AM 64.4 °F 57.2 °F 77% 29.89 in 6.2 mi Variable 4.6 mph - N/A   Scattered Clouds
10:00 AM 61 °F 53 °F 68% 29.91 in 12 mi SSE 6.7 mph - - Rain Light Rain
10:00 AM 60.8 °F 53.6 °F 77% 29.89 in 6.2 mi Variable 6.9 mph - N/A Rain Light Rain
10:30 AM 59.0 °F 55.4 °F 88% 29.92 in 5.0 mi Variable 3.5 mph - N/A Rain Rain
11:00 AM 59.0 °F 55.4 °F 88% 29.92 in 5.0 mi Variable 3.5 mph - N/A Rain Rain
11:30 AM 59.0 °F 55.4 °F 88% 29.89 in 4.3 mi SE 5.8 mph - N/A Rain Light Rain
12:00 PM 59.0 °F 55.4 °F 88% 29.89 in 6.2 mi East 5.8 mph - N/A Rain Light Rain
12:30 PM 59.0 °F 57.2 °F 94% 29.86 in 6.2 mi ESE 6.9 mph - N/A Rain Light Rain
1:00 PM 60 °F 57 °F 86% 29.86 in 6 mi SE 6.7 mph - - Rain Light Rain
1:00 PM 60.8 °F 57.2 °F 88% 29.86 in 6.2 mi SE 6.9 mph - N/A Rain Light Rain
1:30 PM 60.8 °F 57.2 °F 88% 29.83 in 6.2 mi ESE 5.8 mph - N/A Rain Light Rain
2:00 PM 60.8 °F 57.2 °F 88% 29.83 in 6.2 mi SE 6.9 mph - N/A   Mostly Cloudy
2:30 PM 62.6 °F 57.2 °F 82% 29.83 in 6.2 mi ESE 6.9 mph - N/A   Mostly Cloudy
3:00 PM 62.6 °F 57.2 °F 82% 29.83 in 6.2 mi ESE 4.6 mph - N/A   Mostly Cloudy
3:30 PM 64.4 °F 59.0 °F 83% 29.80 in 6.2 mi SE 9.2 mph - N/A   Mostly Cloudy
4:00 PM 64 °F 59 °F 79% 29.81 in 12 mi SE 8.9 mph - -   Partly Cloudy
4:00 PM 64.4 °F 59.0 °F 83% 29.80 in 6.2 mi Variable 9.2 mph - N/A   Mostly Cloudy
4:30 PM 64.4 °F 59.0 °F 83% 29.80 in 6.2 mi Variable 8.1 mph 19.6 mph N/A   Mostly Cloudy
5:00 PM 64.4 °F 59.0 °F 83% 29.80 in 6.2 mi SE 9.2 mph - N/A   Mostly Cloudy
5:30 PM 62.6 °F 59.0 °F 88% 29.80 in 6.2 mi ESE 8.1 mph - N/A   Mostly Cloudy
6:00 PM 62.6 °F 59.0 °F 88% 29.77 in 6.2 mi SE 9.2 mph - N/A   Mostly Cloudy
6:30 PM 62.6 °F 60.8 °F 94% 29.77 in 6.2 mi SE 9.2 mph - N/A   Mostly Cloudy
7:00 PM 64 °F 61 °F 85% 29.77 in 12 mi SSE 8.9 mph - -   Partly Cloudy
7:00 PM 64.4 °F 60.8 °F 88% 29.77 in 6.2 mi Variable 9.2 mph 20.7 mph N/A   Mostly Cloudy
7:30 PM 64.4 °F 60.8 °F 88% 29.74 in 6.2 mi SE 9.2 mph - N/A   Mostly Cloudy
8:00 PM 64.4 °F 60.8 °F 88% 29.74 in 6.2 mi SE 9.2 mph - N/A Rain Light Rain
8:30 PM 64.4 °F 60.8 °F 88% 29.71 in 6.2 mi SE 9.2 mph 20.7 mph N/A   Overcast
9:00 PM 64.4 °F 60.8 °F 88% 29.71 in 6.2 mi Variable 10.4 mph - N/A   Overcast
9:30 PM 64.4 °F 60.8 °F 88% 29.68 in 6.2 mi SE 11.5 mph 23.0 mph N/A   Overcast
10:00 PM 65 °F 62 °F 86% 29.68 in 1 mi SE 11.2 mph - -   Partly Cloudy
10:00 PM 64.4 °F 62.6 °F 94% 29.68 in 6.2 mi SE 11.5 mph 24.2 mph N/A   Overcast
10:30 PM 64.4 °F 62.6 °F 94% 29.68 in 6.2 mi SE 11.5 mph 23.0 mph N/A   Overcast
11:00 PM 64.4 °F 62.6 °F 94% 29.65 in 6.2 mi SE 11.5 mph 23.0 mph N/A   Overcast
11:30 PM 64.4 °F 62.6 °F 94% 29.62 in 6.2 mi SE 12.7 mph 24.2 mph N/A Rain Light Rain